VK5FR Weather Reports


time (UTC)temp
C
wind
direction
speed
KPH
gust
KPH
rain 1hr
cm
rain 24hr
cm
rain mn
cm
humidity
%
barometer
mb
20260504005007 16 249 19.3 33.8 0.00 0.00 0.00 75 1012.2
20260504004504 16 247 19.3 29.0 0.00 0.00 0.00 76 1012.3
20260504004001 16 257 24.1 32.2 0.00 0.00 0.00 74 1012.1
20260504003457 16 236 24.1 37.0 0.00 0.00 0.00 75 1012.1
20260504002954 16 239 19.3 29.0 0.00 0.00 0.00 75 1012.1
20260504002451 16 278 22.5 33.8 0.00 0.00 0.00 76 1012.1
20260504001948 16 238 22.5 25.7 0.00 0.00 0.00 76 1012.0
20260504001446 16 227 30.6 37.0 0.00 0.00 0.00 76 1012.2
20260504000942 16 237 20.9 25.7 0.00 0.00 0.00 76 1011.8
20260504000439 16 248 19.3 32.2 0.00 0.00 0.00 76 1011.8
20260503235936 16 231 25.7 37.0 0.00 0.00 0.00 75 1011.7
20260503235434 16 281 20.9 27.4 0.00 0.00 0.00 76 1011.7
20260503234931 16 234 24.1 37.0 0.00 0.00 0.00 76 1011.9
20260503234429 16 225 20.9 27.4 0.00 0.00 0.00 75 1011.7
20260503233927 16 261 27.4 35.4 0.00 0.00 0.00 76 1011.4
20260503233423 16 270 24.1 32.2 0.00 0.00 0.00 76 1011.5
20260503232920 16 254 29.0 33.8 0.00 0.00 0.00 75 1011.4
20260503232417 16 251 25.7 35.4 0.00 0.00 0.00 75 1011.1
20260503231914 16 252 25.7 29.0 0.00 0.00 0.00 76 1011.3
20260503231412 16 248 22.5 35.4 0.00 0.00 0.00 76 1011.3
20260503230908 16 256 27.4 33.8 0.00 0.00 0.00 76 1011.1
20260503230404 16 248 27.4 35.4 0.00 0.00 0.00 76 1011.0
20260503225902 16 247 29.0 35.4 0.00 0.00 0.00 76 1010.8
20260503225358 16 266 19.3 29.0 0.00 0.00 0.00 77 1010.7
20260503224854 16 260 25.7 35.4 0.00 0.00 0.00 76 1010.8
20260503224351 16 243 19.3 35.4 0.00 0.00 0.00 77 1010.8
20260503223849 16 270 24.1 33.8 0.00 0.00 0.00 79 1010.4
20260503223347 16 253 22.5 27.4 0.00 0.00 0.00 81 1010.4
20260503222842 15 258 17.7 29.0 0.00 0.00 0.00 82 1010.3
20260503222341 16 244 14.5 32.2 0.00 0.00 0.00 83 1010.2
20260503221839 16 269 25.7 35.4 0.00 0.00 0.00 82 1010.0
20260503221337 16 263 20.9 35.4 0.00 0.00 0.00 80 1010.1
20260503220832 16 242 24.1 32.2 0.00 0.00 0.00 80 1010.0
20260503220330 15 271 24.1 29.0 0.00 0.00 0.00 82 1010.0
20260503215827 15 249 16.1 24.1 0.00 0.00 0.00 85 1009.8
20260503215324 15 292 17.7 32.2 0.00 0.00 0.00 86 1009.8
20260503214821 15 263 24.1 38.6 0.00 0.00 0.00 87 1009.8
20260503214318 15 291 19.3 37.0 0.00 0.00 0.00 87 1009.8
20260503213810 15 292 14.5 24.1 0.00 0.00 0.00 87 1009.6
20260503213307 15 313 19.3 33.8 0.00 0.00 0.00 87 1009.4
20260503212804 15 315 19.3 38.6 0.00 0.00 0.00 87 1009.4
20260503212302 15 268 24.1 33.8 0.00 0.00 0.00 86 1009.5
20260503211759 15 285 16.1 33.8 0.00 0.00 0.00 85 1009.5
20260503211255 15 280 32.2 37.0 0.00 0.00 0.00 85 1009.6
20260503210755 15 321 20.9 29.0 0.00 0.00 0.00 84 1009.3
20260503210253 15 273 27.4 37.0 0.00 0.00 0.00 83 1009.4
20260503205748 15 257 24.1 35.4 0.00 0.00 0.00 83 1009.3
20260503205245 15 279 22.5 40.2 0.00 0.00 0.00 84 1009.2
20260503204741 15 274 29.0 38.6 0.00 0.00 0.00 85 1009.3
20260503204239 15 263 22.5 33.8 0.00 0.00 0.00 85 1009.0
20260503203736 15 253 35.4 43.5 0.00 0.00 0.00 84 1009.0
20260503203234 15 273 24.1 37.0 0.00 0.00 0.00 83 1008.8
20260503202731 15 297 24.1 37.0 0.00 0.00 0.00 83 1009.0
20260503202229 15 276 25.7 35.4 0.00 0.00 0.00 83 1008.9
20260503201726 15 278 25.7 33.8 0.00 0.00 0.00 83 1008.8
20260503201224 15 259 16.1 33.8 0.00 0.00 0.00 82 1008.7
20260503200720 15 299 17.7 37.0 0.00 0.00 0.00 82 1008.7
20260503200216 15 272 25.7 38.6 0.00 0.00 0.00 82 1008.8
20260503195713 15 281 20.9 33.8 0.00 0.00 0.00 83 1008.5
20260503195210 15 296 17.7 35.4 0.00 0.00 0.00 83 1008.5
20260503194707 15 271 24.1 27.4 0.00 0.00 0.00 82 1008.5
20260503194203 15 300 24.1 33.8 0.00 0.00 0.00 82 1008.6
20260503193700 15 321 22.5 35.4 0.00 0.00 0.00 82 1008.6
20260503193155 15 343 22.5 32.2 0.00 0.00 0.00 83 1008.5
20260503192651 15 274 35.4 43.5 0.00 0.00 0.00 83 1008.5
20260503192147 15 258 32.2 35.4 0.00 0.00 0.00 84 1008.5
20260503191644 15 285 27.4 40.2 0.00 0.00 0.00 83 1008.6
20260503191141 15 286 24.1 35.4 0.00 0.00 0.00 83 1008.4
20260503190638 15 298 29.0 37.0 0.00 0.00 0.00 83 1008.4
20260503190135 15 279 17.7 37.0 0.00 0.00 0.00 83 1008.7
20260503185631 15 311 22.5 37.0 0.00 0.00 0.00 84 1008.5
20260503185126 15 318 30.6 40.2 0.00 0.00 0.00 83 1008.5
20260503184622 15 281 22.5 33.8 0.00 0.00 0.00 83 1008.4
20260503184118 15 275 20.9 32.2 0.00 0.00 0.00 83 1008.5
20260503183615 15 314 24.1 32.2 0.00 0.00 0.00 83 1008.4
20260503183112 15 284 29.0 43.5 0.00 0.00 0.00 83 1008.5
20260503182611 15 303 30.6 46.7 0.00 0.00 0.00 82 1008.5
20260503182109 15 298 32.2 38.6 0.00 0.00 0.00 83 1008.6
20260503181605 15 292 24.1 37.0 0.00 0.00 0.00 82 1008.6
20260503181102 15 300 32.2 37.0 0.00 0.00 0.00 80 1008.6
20260503180559 15 330 32.2 40.2 0.00 0.00 0.00 80 1008.5
20260503180056 15 281 19.3 32.2 0.00 0.00 0.00 80 1008.5
20260503175553 15 275 27.4 33.8 0.00 0.00 0.00 81 1008.4
20260503175050 15 301 22.5 33.8 0.00 0.00 0.00 80 1008.5
20260503174548 15 290 24.1 35.4 0.00 0.00 0.00 81 1008.5
20260503174044 15 282 22.5 40.2 0.00 0.00 0.00 81 1008.6
20260503173539 15 266 30.6 40.2 0.00 0.00 0.00 80 1008.7
20260503173035 15 274 30.6 51.5 0.00 0.00 0.00 81 1008.7
20260503172533 15 259 25.7 37.0 0.00 0.00 0.00 81 1008.7
20260503172030 15 269 24.1 40.2 0.00 0.00 0.00 81 1008.7
20260503171526 15 287 24.1 35.4 0.00 0.00 0.00 81 1008.8
20260503171024 15 303 27.4 37.0 0.00 0.00 0.00 81 1008.7
20260503170520 15 293 35.4 41.8 0.00 0.00 0.00 81 1008.8
20260503150913 15 332 32.2 38.6 0.00 0.00 0.00 83 1008.8
20260503150409 15 267 24.1 40.2 0.00 0.00 0.00 84 1008.9
20260503131302 15 285 27.4 41.8 0.00 0.05 0.05 77 1009.6
20260503130800 15 305 32.2 38.6 0.00 0.05 0.05 77 1009.7
20260503130257 15 322 29.0 41.8 0.00 0.05 0.05 77 1009.7
20260503110651 16 267 38.6 46.7 0.00 0.05 0.05 76 1009.3
20260503110148 16 332 33.8 41.8 0.00 0.05 0.05 76 1009.2
20260503100115 16 308 37.0 49.9 0.00 0.05 0.05 75 1008.9
20260503081504 15 291 27.4 41.8 0.00 0.05 0.05 88 1008.5
20260503081001 14 301 30.6 35.4 0.00 0.05 0.05 87 1008.4
20260503080457 15 294 30.6 41.8 0.00 0.05 0.05 85 1008.4
20260503072934 16 300 30.6 43.5 0.00 0.05 0.05 76 1007.8
20260503072431 16 293 30.6 41.8 0.00 0.05 0.05 77 1007.9
20260503071928 17 319 22.5 38.6 0.00 0.05 0.05 76 1008.0
20260503071425 16 322 30.6 46.7 0.00 0.05 0.05 75 1008.1
20260503070921 16 319 30.6 48.3 0.00 0.05 0.05 75 1007.8
20260503070418 16 289 30.6 46.7 0.00 0.05 0.05 75 1007.7
20260503054832 15 309 32.2 41.8 0.00 0.05 0.05 85 1008.0
20260503054328 15 296 38.6 48.3 0.00 0.05 0.05 85 1007.9
20260503053826 14 307 41.8 56.3 0.00 0.05 0.05 85 1008.0
20260503053324 13 337 35.4 46.7 0.00 0.05 0.05 87 1008.1
20260503052820 14 300 37.0 48.3 0.00 0.05 0.05 87 1008.2
20260503052317 15 333 22.5 35.4 0.00 0.05 0.05 86 1007.8
20260503051813 14 298 27.4 40.2 0.00 0.05 0.05 87 1007.9
20260503051309 13 318 20.9 27.4 0.00 0.05 0.05 88 1007.9
20260503050806 14 303 24.1 35.4 0.13 0.05 0.05 88 1008.0
20260503050303 14 313 29.0 37.0 0.13 0.05 0.05 87 1008.1
20260503045800 14 281 22.5 37.0 0.00 0.03 0.03 87 1007.9
20260503045258 14 297 20.9 33.8 0.00 0.03 0.03 85 1008.0
20260503044754 14 286 38.6 46.7 0.18 0.03 0.03 82 1008.1
20260503044251 15 320 35.4 56.3 0.18 0.03 0.03 83 1007.8
20260503043748 15 300 33.8 53.1 0.00 0.00 0.00 81 1007.8
20260503043245 15 296 25.7 38.6 0.00 0.00 0.00 80 1007.8
20260503042741 15 318 29.0 40.2 0.00 0.00 0.00 76 1007.8
20260503042238 15 316 30.6 48.3 0.00 0.00 0.00 74 1007.9
20260503041734 17 318 32.2 41.8 0.00 0.00 0.00 72 1007.5
20260503041232 16 315 40.2 49.9 0.00 0.00 0.00 69 1007.5
20260503040729 16 320 43.5 53.1 0.00 0.00 0.00 69 1007.7
20260503040227 16 326 20.9 43.5 0.00 0.00 0.00 73 1007.7
20260503035723 16 318 30.6 43.5 0.00 0.00 0.00 71 1007.7
20260503035221 16 320 38.6 46.7 0.00 0.00 0.00 71 1007.8
20260503034718 17 309 37.0 43.5 0.00 0.00 0.00 72 1007.7
20260503034215 16 310 43.5 49.9 0.00 0.00 0.00 72 1007.8
20260503033713 16 322 38.6 46.7 0.00 0.00 0.00 70 1007.9
20260503033210 16 310 38.6 54.7 0.00 0.00 0.00 72 1007.9
20260503032708 16 310 35.4 51.5 0.00 0.00 0.00 74 1007.8
20260503032206 16 314 30.6 48.3 0.00 0.00 0.00 78 1007.8
20260503031703 15 312 43.5 46.7 0.00 0.00 0.00 81 1007.9
20260503031201 15 323 40.2 48.3 0.00 0.00 0.00 84 1007.7
20260503030656 15 314 27.4 35.4 0.00 0.00 0.00 85 1008.1
20260503030154 14 296 20.9 37.0 0.00 0.00 0.00 85 1008.2
20260503025650 14 299 30.6 40.2 0.00 0.00 0.00 82 1008.5
20260503025148 15 307 25.7 40.2 0.00 0.00 0.00 79 1008.5
20260503024644 15 308 38.6 62.8 0.00 0.00 0.00 77 1008.7
20260503024142 16 331 45.1 66.0 0.00 0.00 0.00 75 1008.6
20260503023638 16 301 33.8 54.7 0.00 0.00 0.00 72 1008.5
20260503023136 16 309 25.7 41.8 0.00 0.00 0.00 72 1008.5
20260503022632 16 300 27.4 51.5 0.00 0.00 0.00 73 1008.5
20260503022126 16 316 37.0 46.7 0.00 0.00 0.00 73 1008.4
20260503021623 16 328 27.4 46.7 0.00 0.00 0.00 75 1008.4
20260503021120 15 341 33.8 48.3 0.00 0.00 0.00 75 1008.4
20260503020617 16 275 38.6 48.3 0.00 0.00 0.00 74 1008.4
20260503020115 16 313 43.5 49.9 0.00 0.00 0.00 73 1008.3
20260503015611 16 297 45.1 54.7 0.00 0.00 0.00 70 1008.4
20260503015108 16 291 38.6 48.3 0.00 0.00 0.00 73 1008.4
20260503014604 16 299 35.4 43.5 0.00 0.00 0.00 74 1008.4
20260503014102 16 330 41.8 53.1 0.00 0.00 0.00 74 1008.3
20260503013559 16 301 37.0 59.5 0.00 0.00 0.00 73 1008.6
20260503013057 16 303 30.6 49.9 0.00 0.00 0.00 71 1008.5
20260503012554 16 13 37.0 48.3 0.00 0.00 0.00 72 1008.6
20260503012050 16 317 40.2 54.7 0.00 0.00 0.00 71 1008.5
20260503011547 16 345 37.0 54.7 0.00 0.00 0.00 71 1008.2
20260503011044 16 330 38.6 49.9 0.00 0.00 0.00 73 1008.4
20260503010540 16 297 38.6 51.5 0.00 0.00 0.00 75 1008.2
20260503010038 16 335 46.7 53.1 0.00 0.00 0.00 74 1008.2
20260503005535 16 359 27.4 48.3 0.00 0.00 0.00 75 1008.6
20260503005032 16 328 38.6 51.5 0.00 0.00 0.00 76 1008.2